Location: T. Spence Memorial Observatory
(32.7356°N, 82.2098°W)
Time: 10:03:26
(UTC-04:00)

Cosmos 2219 - Visible Passes

Search period start: 29 July 2016 00:00
Search period end: 08 August 2016 00:00
Orbit: 834 x 860 km, 71.1° (Epoch: 28 July)

Date Brightness Start Highest point End Pass type
(mag) Time Alt. Az. Time Alt. Az. Time Alt. Az.
29 Jul 5.6 00:39:31 10° NNE 00:41:21 13° NE 00:41:21 13° NE visible
29 Jul 5.1 02:21:09 10° NNW 02:23:14 23° NNW 02:23:14 23° NNW visible
30 Jul 5.6 00:26:12 10° NNE 00:27:49 12° NE 00:27:49 12° NE visible
30 Jul 5.2 02:07:43 10° NNW 02:09:43 23° NNW 02:09:43 23° NNW visible
31 Jul 5.6 00:12:54 10° NNE 00:14:20 12° NE 00:14:20 12° NE visible
31 Jul 5.2 01:54:17 10° NNW 01:56:14 22° NNW 01:56:14 22° NNW visible
31 Jul 5.6 23:59:35 10° NNE 00:00:53 12° NE 00:00:53 12° NE visible
01 Aug 5.2 01:40:49 10° NNW 01:42:46 22° NNW 01:42:46 22° NNW visible
01 Aug 5.6 23:46:18 10° NE 23:47:28 11° NE 23:47:28 11° NE visible
02 Aug 5.2 01:27:23 10° NNW 01:29:22 23° NNW 01:29:22 23° NNW visible
02 Aug 5.6 23:33:02 10° NE 23:34:05 11° NE 23:34:05 11° NE visible
03 Aug 5.2 01:13:56 10° NNW 01:15:59 23° NNW 01:15:59 23° NNW visible
03 Aug 5.6 23:19:47 10° NE 23:20:44 11° NE 23:20:44 11° NE visible
04 Aug 5.2 01:00:30 10° NNW 01:02:39 24° NNW 01:02:39 24° NNW visible
04 Aug 5.5 23:06:35 10° NE 23:07:25 11° NE 23:07:25 11° NE visible
05 Aug 5.1 00:47:02 10° NNW 00:49:20 25° NNW 00:49:20 25° NNW visible
05 Aug 5.5 22:53:29 10° NE 22:54:08 10° NE 22:54:08 10° NE visible
06 Aug 5.0 00:33:36 10° NNW 00:36:03 27° NNW 00:36:03 27° NNW visible
06 Aug 5.5 22:40:48 10° NE 22:40:52 10° NE 22:40:53 10° NE visible
07 Aug 4.9 00:20:10 10° NNW 00:22:48 29° NNW 00:22:48 29° NNW visible
